Regional Weather Roundup
Issued by NWS Goodland, KS

Home | Current Version | Previous Version | Text Only | Print | Product List | Glossary On
Versions: 1 2 3 4 5 6 7 8 9 10 11 12 13 14 15 16 17 18 19 20 21 22 23 24 25 26 27 28 29 30 31 32 33 34 35 36 37 38 39 40 41 42 43 44 45 46 47 48 49 50
000
ASUS43 KGLD 242108
RWRGLD

GOODLAND FORECAST AREA HOURLY WEATHER ROUNDUP
NATIONAL WEATHER SERVICE GOODLAND KS
300 PM MDT FRI OCT 24 2014

...OFFICIAL OBSERVATIONS...

CITY           SKY/WX    TMP DP  RH WIND       PRES   REMARKS
GOODLAND KS    SUNNY     89  26  10 VRB3      30.05F
HILL CITY KS   SUNNY     88  34  14 N6        29.98S
IMPERIAL NEB   SUNNY     84  31  14 N15       30.02F
MCCOOK NEB     SUNNY     88  32  13 W10G17    29.98F
AKRON CO       SUNNY     81  22  11 NW8G16    30.11F
BURLINGTON CO  SUNNY     85  21   9 W5        30.09S
LIMON CO       SUNNY     80  19  10 MISG      30.16F
$$

...UNOFFICIAL OBSERVATIONS...

CITY           SKY/WX    TMP DP  RH WIND       PRES   REMARKS
COLBY KS       SUNNY     88  39  18 CALM      30.03S
NORTON KS      SUNNY     88  21   8 W10       29.97S
SHARON SPRINGS   N/A     88  33  14 CALM        N/A
KIT CARSON CO    N/A     84  31  15 CALM        N/A
YUMA CO          N/A     84  28  13 NW6G13      N/A
$$



USA.gov is the U.S. government's official web portal to all federal, state and local government web resources and services.